Visibility
15.0 15.0 15.0 15.0 15.0 15.0 15.0 14.5 15.0 15.0 15.0 15.0 15.0 15.0 15.0 15.0 5.0 15.0 15.0 15.0 15.0 15.0 15.0 15.0 15.0 15.0 15.0 15.0 15.0 15.0 15.0 15.0 15.0 15.0 1.1 0.3 0.3 0.2 12.4 15.0 15.0 15.0 10.6
15.0 10.7 2.3 15.0 14.3 7.8 15.0 13.4 1.9 15.0 15.0 15.0 15.0 15.0 15.0 15.0 6.5 15.0 15.0 15.0 15.0 15.0 15.0 15.0 15.0 15.0 15.0 15.0 15.0 15.0 15.0 15.0 15.0 15.0 0.1 0.1 0.1 14.3 15.0 14.7 14.0 15.0 15.0
9.0 9.9 2.4 13.3 15.0 9.1 8.2 15.0 13.0 12.3 15.0 15.0 15.0 15.0 15.0 15.0 8.4 14.1 14.5 15.0 15.0 15.0 15.0 15.0 15.0 15.0 15.0 15.0 15.0 15.0 15.0 15.0 15.0 15.0 0.1 13.3 0.1 14.1 15.0 15.0 15.0 15.0 8.1
12.8 11.7 10.0 8.7 7.8 15.0 15.0 15.0 15.0 3.7 8.2 15.0 15.0 15.0 15.0 15.0 12.8 9.4 15.0 15.0 15.0 15.0 15.0 15.0 15.0 15.0 15.0 15.0 15.0 15.0 15.0 15.0 15.0 15.0 12.9 1.6 0.7 0.6 13.5 0.1 0.2 15.0 8.1
15.0 12.0 6.3 14.9 12.6 14.6 15.0 12.0 7.8 15.0 12.0 15.0 10.7 15.0 15.0 15.0 15.0 15.0 15.0 15.0 15.0 15.0 15.0 15.0 15.0 15.0 15.0 15.0 15.0 15.0 15.0 15.0 15.0 15.0 3.7 2.5 0.1 0.1 0.1 7.2 11.3 15.0 6.9
15.0 15.0 15.0 15.0 10.6 13.6 15.0 15.0 7.5 6.9 3.5 14.8 11.3 9.6 5.3 9.7 15.0 15.0 15.0 15.0 15.0 15.0 15.0 15.0 15.0 15.0 15.0 15.0 15.0 15.0 15.0 15.0 15.0 15.0 7.2 0.3 0.1 0.1 14.9 15.0 3.6 0.7 0.1
15.0 15.0 15.0 15.0 4.8 2.1 8.1 10.6 15.0 14.7 9.8 5.4 15.0 6.0 7.8 6.4 9.2 11.8 14.3 15.0 15.0 15.0 15.0 15.0 15.0 15.0 15.0 15.0 15.0 15.0 15.0 15.0 15.0 15.0 15.0 15.0 5.5 11.8 15.0 15.0 15.0 15.0 14.3
15.0 15.0 15.0 15.0 15.0 15.0 15.0 14.9 8.3 14.6 14.8 15.0 15.0 7.4 14.0 9.8 0.3 9.0 7.1 15.0 15.0 15.0 15.0 15.0 15.0 15.0 15.0 15.0 15.0 15.0 15.0 15.0 11.1 1.3 15.0 15.0 15.0 15.0 15.0 15.0 15.0 15.0 6.8
15.0 15.0 15.0 15.0 15.0 15.0 15.0 15.0 15.0 14.7 6.3 7.3 15.0 14.1 15.0 15.0 8.5 9.3 6.7 6.5 15.0 15.0 15.0 15.0 15.0 15.0 15.0 15.0 15.0 15.0 15.0 15.0 0.1 0.1 0.1 0.0 0.0 12.6 15.0 15.0 3.4 4.4 0.1
15.0 15.0 15.0 15.0 14.5 15.0 15.0 15.0 15.0 15.0 15.0 15.0 15.0 15.0 15.0 15.0 15.0 15.0 15.0 15.0 15.0 15.0 15.0 15.0 15.0 15.0 15.0 15.0 15.0 15.0 15.0 15.0 15.0 15.0 15.0 0.9 0.0 2.2 15.0 15.0 15.0 15.0 10.2
15.0 15.0 15.0 15.0 15.0 15.0 11.9 13.5 15.0 15.0 15.0 15.0 15.0 15.0 15.0 15.0 15.0 15.0 15.0 15.0 15.0 15.0 15.0 15.0 15.0 15.0 15.0 15.0 15.0 15.0 15.0 11.5 5.4 9.9 13.3 15.0 1.4 1.4 15.0 15.0 15.0 15.0 15.0
15.0 15.0 15.0 15.0 15.0 15.0 15.0 15.0 15.0 15.0 15.0 15.0 15.0 15.0 15.0 15.0 15.0 15.0 15.0 15.0 15.0 15.0 15.0 15.0 15.0 15.0 15.0 15.0 15.0 15.0 14.4 0.1 15.0 15.0 15.0 15.0 13.3 0.8 8.2 15.0 15.0 15.0 15.0
15.0 15.0 15.0 15.0 15.0 15.0 15.0 15.0 15.0 15.0 15.0 15.0 15.0 15.0 15.0 15.0 15.0 15.0 15.0 15.0 15.0 15.0 15.0 15.0 15.0 15.0 15.0 15.0 15.0 15.0 0.1 1.2 15.0 10.3 11.8 15.0 15.0 15.0 15.0 15.0 15.0 15.0 15.0
15.0 15.0 15.0 15.0 15.0 15.0 15.0 15.0 15.0 15.0 15.0 15.0 15.0 15.0 15.0 15.0 15.0 15.0 15.0 15.0 15.0 15.0 15.0 15.0 15.0 15.0 15.0 15.0 15.0 15.0 15.0 15.0 15.0 15.0 15.0 15.0 12.8 0.7 0.1 15.0 0.1 0.2 11.7
15.0 15.0 15.0 15.0 15.0 15.0 15.0 15.0 15.0 15.0 15.0 15.0 15.0 15.0 15.0 15.0 15.0 15.0 15.0 15.0 15.0 15.0 15.0 15.0 15.0 7.1 15.0 15.0 15.0 15.0 15.0 15.0 15.0 15.0 15.0 15.0 11.1 0.5 0.1 0.5 6.6 0.2 15.0
15.0 15.0 15.0 15.0 15.0 15.0 15.0 15.0 15.0 15.0 15.0 15.0 15.0 15.0 15.0 15.0 15.0 15.0 15.0 15.0 15.0 0.0 0.1 15.0 15.0 15.0 15.0 15.0 15.0 15.0 15.0 15.0 15.0 15.0 15.0 15.0 15.0 11.3 0.3 0.4 0.9 0.2 9.1
15.0 15.0 15.0 15.0 15.0 15.0 15.0 15.0 15.0 15.0 15.0 15.0 15.0 15.0 15.0 15.0 15.0 15.0 15.0 15.0 15.0 5.0 13.8 15.0 15.0 15.0 15.0 15.0 15.0 15.0 15.0 15.0 15.0 15.0 15.0 15.0 15.0 15.0 0.1 0.2 0.2 0.2 3.7
14.6 9.5 14.6 15.0 15.0 15.0 15.0 15.0 15.0 15.0 15.0 15.0 15.0 15.0 15.0 15.0 15.0 15.0 15.0 13.6 15.0 15.0 15.0 15.0 15.0 15.0 15.0 15.0 15.0 15.0 15.0 15.0 15.0 15.0 15.0 15.0 15.0 15.0 0.1 0.1 0.1 0.4 14.6
14.8 15.0 15.0 15.0 15.0 15.0 15.0 9.5 7.9 15.0 15.0 15.0 15.0 15.0 15.0 15.0 15.0 15.0 15.0 15.0 15.0 15.0 15.0 15.0 15.0 15.0 15.0 14.4 15.0 15.0 15.0 15.0 12.4 15.0 15.0 15.0 15.0 15.0 9.0 12.4 8.0 0.1 2.8
0.0 0.0 0.1 0.0 0.0 0.0 0.2 0.1 0.0 0.0 0.1 5.0 15.0 15.0 15.0 15.0 15.0 15.0 15.0 15.0 15.0 15.0 15.0 15.0 15.0 15.0 15.0 15.0 15.0 15.0 15.0 0.2 13.2 15.0 15.0 15.0 15.0 15.0 15.0 15.0 15.0 15.0 15.0
0.0 0.0 0.0 0.0 0.0 0.0 0.0 0.0 0.1 0.3 1.1 15.0 15.0 15.0 15.0 14.9 15.0 15.0 15.0 15.0 15.0 15.0 15.0 15.0 15.0 15.0 15.0 15.0 15.0 8.0 6.9 15.0 14.9 13.9 15.0 15.0 15.0 15.0 15.0 15.0 15.0 15.0 15.0
0.0 0.0 0.0 0.0 0.0 0.0 0.0 0.1 0.1 0.2 2.2 15.0 15.0 15.0 7.8 11.2 15.0 15.0 15.0 15.0 15.0 15.0 15.0 15.0 15.0 15.0 15.0 15.0 15.0 9.2 5.4 10.6 9.9 15.0 15.0 15.0 15.0 15.0 15.0 15.0 15.0 15.0 14.7
0.0 0.0 0.0 0.0 0.0 0.0 0.1 2.3 5.5 0.2 0.8 15.0 15.0 15.0 11.4 9.7 15.0 15.0 15.0 15.0 15.0 15.0 15.0 15.0 15.0 15.0 15.0 15.0 15.0 15.0 11.9 9.9 15.0 14.7 15.0 15.0 15.0 15.0 15.0 15.0 15.0 15.0 15.0
0.0 0.0 0.0 0.1 0.9 0.1 0.1 0.1 13.9 12.9 14.9 15.0 14.6 14.9 15.0 15.0 15.0 15.0 15.0 15.0 15.0 15.0 15.0 15.0 15.0 14.7 15.0 15.0 15.0 15.0 15.0 15.0 14.1 15.0 15.0 15.0 15.0 0.6 14.7 15.0 15.0 15.0 15.0
0.0 0.3 12.5 13.8 11.3 0.3 0.3 0.6 2.6 15.0 14.5 15.0 7.9 15.0 15.0 14.5 14.7 15.0 14.8 15.0 15.0 15.0 15.0 11.5 10.8 15.0 15.0 15.0 15.0 15.0 13.7 9.7 15.0 12.4 15.0 15.0 15.0 15.0 15.0 15.0 15.0 15.0 15.0
0.2 14.1 11.7 10.6 7.6 14.7 0.7 2.4 2.3 14.4 4.0 13.3 15.0 15.0 15.0 13.7 9.5 14.1 15.0 13.6 8.0 15.0 13.9 15.0 15.0 15.0 15.0 15.0 15.0 15.0 0.1 0.2 0.6 13.1 15.0 15.0 15.0 15.0 15.0 15.0 15.0 15.0 14.6